[TLELIST] Archives

 

[TLELIST] Current TLEs

September 17th 2025 PDT

0 HST 1 20580U 90037B 25260.07596046 .00006939 00000-0 25136-3 0 9993 2 20580 28.4679 141.6244 0002538 9.5089 350.5553 15.26344280746732 0 ISS (ZARYA) 1 25544U 98067A 25260.12361477 .00008550 00000-0 15572-3 0 9997 2 25544 51.6329 211.3907 0004353 348.5756 11.5133 15.50345634529426 0 CXO 1 25867U 99040B 25259.35019206 .00000941 00000-0 00000-0 0 9993 2 25867 51.3649 125.8051 8285650 310.4265 0.3581 0.37804868 16283 ...Continue Reading

[TLELIST] Current TLEs

September 16th 2025 PDT

0 HST 1 20580U 90037B 25259.02980319 .00007036 00000-0 25510-3 0 9991 2 20580 28.4678 148.7266 0002470 358.6989 1.3599 15.26330207746572 0 ISS (ZARYA) 1 25544U 98067A 25259.15672217 .00010925 00000-0 19686-3 0 9994 2 25544 51.6329 216.1838 0004347 344.8645 15.2213 15.50326031529274 0 CXO 1 25867U 99040B 25259.35019206 .00000941 00000-0 00000-0 0 9993 2 25867 51.3649 125.8051 8285650 310.4265 0.3581 0.37804868 16283 ...Continue Reading

[TLELIST] Current TLEs

September 15th 2025 PDT

0 HST 1 20580U 90037B 25257.98363641 .00005715 00000-0 20580-3 0 9991 2 20580 28.4675 155.8287 0002391 347.6375 12.4161 15.26314486746412 0 ISS (ZARYA) 1 25544U 98067A 25258.12535402 .00014378 00000-0 25658-3 0 9996 2 25544 51.6329 221.2965 0004312 341.0386 19.0441 15.50311716529117 0 CXO 1 25867U 99040B 25259.35019206 .00000941 00000-0 00000-0 0 9993 2 25867 51.3649 125.8051 8285650 310.4265 0.3581 0.37804868 16283 ...Continue Reading

[TLELIST] Current TLEs

September 14th 2025 PDT

0 HST 1 20580U 90037B 25257.06823216 .00005475 00000-0 19691-3 0 9993 2 20580 28.4676 162.0431 0002335 337.8451 22.2043 15.26304369746279 0 ISS (ZARYA) 1 25544U 98067A 25257.15843506 .00007863 00000-0 14416-3 0 9996 2 25544 51.6331 226.0896 0004303 337.3187 22.7612 15.50283896528963 0 CXO 1 25867U 99040B 25259.35019206 .00000941 00000-0 00000-0 0 9993 2 25867 51.3649 125.8051 8285650 310.4265 0.3581 0.37804868 16283 ...Continue Reading

[TLELIST] Current TLEs

September 13th 2025 PDT

0 HST 1 20580U 90037B 25256.15282209 .00005155 00000-0 18498-3 0 9992 2 20580 28.4676 168.2573 0002277 327.6672 32.3782 15.26294249746133 0 ISS (ZARYA) 1 25544U 98067A 25256.06257952 .00007066 00000-0 13046-3 0 9992 2 25544 51.6331 231.5214 0004290 333.0266 27.0500 15.50263553528797 0 CXO 1 25867U 99040B 25256.70546091 .00000950 00000-0 00000-0 0 9996 2 25867 51.3103 125.9192 8290651 310.3781 0.4168 0.37806980 16272 ...Continue Reading

[TLELIST] Current TLEs

September 13th 2025 PDT

0 HST 1 20580U 90037B 25256.15282209 .00005155 00000-0 18498-3 0 9992 2 20580 28.4676 168.2573 0002277 327.6672 32.3782 15.26294249746133 0 ISS (ZARYA) 1 25544U 98067A 25256.06257952 .00007066 00000-0 13046-3 0 9992 2 25544 51.6331 231.5214 0004290 333.0266 27.0500 15.50263553528797 0 CXO 1 25867U 99040B 25256.70546091 .00000950 00000-0 00000-0 0 9996 2 25867 51.3103 125.9192 8290651 310.3781 0.4168 0.37806980 16272 ...Continue Reading

[TLELIST] Current TLEs

September 12th 2025 PDT

0 HST 1 20580U 90037B 25254.12582267 .00005383 00000-0 19366-3 0 9992 2 20580 28.4680 182.0172 0002181 304.3836 55.6552 15.26272782745821 0 ISS (ZARYA) 1 25544U 98067A 25254.83778358 .00007850 00000-0 14414-3 0 9994 2 25544 51.6331 237.5922 0004235 328.5405 31.5330 15.50244386528606 0 CXO 1 25867U 99040B 25256.70546091 .00000950 00000-0 00000-0 0 9996 2 25867 51.3103 125.9192 8290651 310.3781 0.4168 0.37806980 16272 ...Continue Reading

[TLELIST] Current TLEs

September 11th 2025 PDT

0 HST 1 20580U 90037B 25254.12582267 .00005383 00000-0 19366-3 0 9992 2 20580 28.4680 182.0172 0002181 304.3836 55.6552 15.26272782745821 0 ISS (ZARYA) 1 25544U 98067A 25254.12868393 .00007439 00000-0 13707-3 0 9992 2 25544 51.6330 241.1070 0004195 325.8939 34.1779 15.50232562528493 0 CXO 1 25867U 99040B 25256.70546091 .00000950 00000-0 00000-0 0 9996 2 25867 51.3103 125.9192 8290651 310.3781 0.4168 0.37806980 16272 ...Continue Reading

[TLELIST] Current TLEs

September 11th 2025 PDT

0 HST 1 20580U 90037B 25254.12582267 .00005383 00000-0 19366-3 0 9992 2 20580 28.4680 182.0172 0002181 304.3836 55.6552 15.26272782745821 0 ISS (ZARYA) 1 25544U 98067A 25254.12868393 .00007439 00000-0 13707-3 0 9992 2 25544 51.6330 241.1070 0004195 325.8939 34.1779 15.50232562528493 0 CXO 1 25867U 99040B 25256.70546091 .00000950 00000-0 00000-0 0 9996 2 25867 51.3103 125.9192 8290651 310.3781 0.4168 0.37806980 16272 ...Continue Reading

[TLELIST] Current TLEs

September 10th 2025 PDT

0 HST 1 20580U 90037B 25253.21039419 .00006756 00000-0 24513-3 0 9992 2 20580 28.4681 188.2312 0002125 293.3571 66.6800 15.26264819745681 0 ISS (ZARYA) 1 25544U 98067A 25253.16172137 .00008215 00000-0 15061-3 0 9997 2 25544 51.6328 245.9000 0004223 321.9734 38.0956 15.50218242528340 0 CXO 1 25867U 99040B 25254.06208417 .00001005 00000-0 00000-0 0 9992 2 25867 51.2313 126.0722 8294853 310.3060 0.6801 0.37809756 16262 ...Continue Reading
  • This mailing list is a public mailing list - anyone may join or leave, at any time.
  • This mailing list is announce-only.

International Space Station (ISS) / Hubble Space Telescope (HST) / Chandra X-Ray Observatory Orbital Data via EMAIL

Privacy Policy:

Private list